Retour au catalogue

SL-6 R/B(2)

ActifHEO
NORAD 15439·ROCKET BODY·🇷🇺 Russia

Lancé Dec 14, 1984 depuis Plesetsk Cosmodrome

Loading…

Prochains Passages (prochaines 24 heures)

TLE

FraisSource: Space-Track

Époque: Sep 11, 2026, 18:06 UTC

1 15439U 84124H   26254.75441279  .00000684  00000-0  36115-3 0  9996
2 15439  62.7086 340.9311 7480518 258.7923  17.0746  1.96374349256423

Suivez SL-6 R/B(2) en temps réel avec AllMySat

Download on the App Store